Погода в Варфоломеевке

Россия / Приморский край     44°18′00″N   133°27′24″E
темп.,
°C
ветер,
м/с
пор.,
м/с
влажн.,
%
обл.,
%
осадки,
мм/ч
давл.,
гПа
погр.,
м
20 января, ср
ср2001:00−28юв11880 0.0 103319
04:00−28юв12850 0.0 103319
07:00−27юв12830 0.0 103319
10:00−23юв11770 0.0 103249
13:00−12юв02680 0.0 1030274
16:00−8св017733 0.0 1025206
19:00−11юв119099 0.0 102421
22:00−11ююв129098 0.0 102321
21 января, чт
чт2101:00−12ю129090 0.0 102124
04:00−12зюз129354 0.0 102024
07:00−11зюз22930 0.0 102029
10:00−8зюз179311 0.0 1021210
13:00−2зсз358114 0.0 1021694
16:00−2зсз238247 0.0 1020618
19:00−9ссв2297100 0.0 102228
22:00−12всв119498 0.0 102121
22 января, пт
пт2201:00−14св019059 0.0 102120
04:00−15ссв129276 0.0 102124
07:00−16ссв1195100 0.0 102223
10:00−15с118882 0.0 102473
13:00−10сз13750 0.0 1025577
16:00−10ссз25627 0.0 1025970
19:00−17св12880 0.0 102820
22:00−19юв01890 0.0 103020
23 января, сб
сб2301:00−20юв119021 0.0 103120
04:00−21юв119111 0.0 103220
07:00−22вюв11920 0.0 103120
10:00−19в11880 0.0 103259
13:00−10всв11710 0.0 1030378
16:00−8всв11670 0.0 1028431
19:00−15в11840 0.0 102920
22:00−16юв11870 0.0 102920
24 января, вс
вс2401:00−17вюв11890 0.0 102820
04:00−17юв11880 0.0 102820
07:00−17ююв11850 0.0 102720
10:00−13вюв01760 0.0 102828
13:00−5зсз11660 0.0 1026282
16:00−5ссз12710 0.0 1026362
19:00−12с11890 0.0 102821
22:00−14ссв11940 0.0 103020